sat.trackr.live / text

‹ back to catalog

STARLINK-35954

NORAD 66885 · 2025-283H

PAYLOAD ACTIVE UNKNOWN

§ Identity

Operator
Country
US
Launch date
2025-12-04
Launch site
AFWTR
Launch vehicle
Mass (kg)
RCS (m²)

Purposes: comms

External: N2YO · Heavens-Above · Gunter

§ Orbital elements

Epoch: 2026-05-25T02:19:50.869056Z

Period
93.85 min
Inclination
53.1592°
Eccentricity
0.0000997
Mean motion
15.34399343 rev/d
Perigee alt
462.0 km
Apogee alt
463.4 km
Semi-major
6,840.8 km
B*
6.5683e-4
RAAN
29.1825°
Arg perigee
90.2696°
Mean anomaly
269.8421°
Rev number
2,754

§ Raw data

STARLINK-359541 66885U 25283H   26145.09711654  .00021880  00000+0  65683-3 0  99932 66885  53.1592  29.1825 0000997  90.2696 269.8421 15.34399343 27548

JSON: /api/v1/satellites/66885 · /tle

For live sub-satellite position, see the globe view (requires WebGL).

§ Visibility from observer

Set your observer location to see the next 7 days of passes ≥ 10°. The values pass through the URL so the page stays shareable.

No JS? Fill the form by hand. The geolocation button needs JavaScript.